STARLINK-3129, 49453

Orbit data source: Space-Track

STARLINK-3129, 49453 is a payload satellite owned by SpaceX/Seattle (US) in LEO that was launched on Sat, 13 Nov 2021 UTC via an FALCON 9 launch vehicle from the Air Force Eastern Test Range (AFETR). Payload-class satellites include a variety of spacecraft equipped with specific instruments for various scientific and technological missions. These include communications satellites like Starlink; space stations such as the ISS; scientific satellites like the Hubble; Earth observation satellites from companies like Planet Labs, Umbra, and HawkEye 360; GPS; miniature CubeSats for education and research; and military/defense satellites.

Loading next visibility...
Identifier
49453, 2021-104AX
Orbit
LEO
Country
Flag of USUS
Related business
Manufacturer
SpaceX/Seattle
Mission
Operational Commercial Communications
Bus & Motor
STARLINK, Unknown motor
Mass
290 kg wet, ~270 kg dry
Launch date (UTC)
2021-11-13 (5 years ago)
Launch vehicle
FALCON 9
Launch site
Air Force Eastern Test Range (AFETR)
Object type
Payload
Rocket body
Debris
Shape & HBR
Box + 1 Pan, 10.1 m
Radar Cross Section
13.562 m², Large (>1 m²)

Expand to show TLE details & history
Last TLE update: 1 week ago

TLE from 1 week ago
0 STARLINK-3129
1 49453U 21104AX  26154.72654495 -.00001058  00000-0 -48401-4 0  9990
2 49453  53.1808 192.9444 0001453 108.0988 252.0162 15.08839974251765
Epoch: 2026-06-03T17:26Z
TLE epoch observation values (Epoch: 2026-06-03T17:26:13.483Z)
Latitude
-0.00003°
Longitude
39.20717°
Altitude
540.948 km
Speed
7.593 km/s
True Right ascension
12h 51m 46s
True Declination
0° 00' 00"
Sunlit
Object was in full shadow at epoch
Visualization orbit readout
Latitude
Unknown
Longitude
Unknown
Altitude
Unknown
Speed
Unknown
Apparent Right ascension
Unknown
Apparent Declination
Unknown
Sunlit
N/A
Visualization observer readout
Local Sidereal Time
14:52:00
Azimuth
Unknown
Elevation
Unknown
Doppler factor
Unknown
Orbital elements
Apogee altitude
540.999 km
Perigee altitude
538.989 km
Semi-major axis
6,918.131 km
Eccentricity
0.00015
Inclination
53.1808°
RAAN
192.9444°
Arg. of periapsis
108.0988°
True anomaly
252.00036°
Mean anomaly
252.0162°
Eccentric anomaly
252.00828°
Mean motion
3.7719 °/min
Orbital period
95.44 mins
BSTAR
-0.000048401
Loading maneuver chart data...
Computing Atmospheric mass density...
Loading historical data...
Loading historical data...
Loading historical data...
Loading historical data...
Loading historical data...
Loading historical data...
Loading historical data...

Documentation

Showing up to 5 results
|